TimeCST,TemperatureF,Dew PointF,Humidity,Sea Level PressureIn,VisibilityMPH,Wind Direction,Wind SpeedMPH,Gust SpeedMPH,PrecipitationIn,Events,Conditions,WindDirDegrees,DateUTC
12:54 AM,34.0,26.1,73,30.06,10.0,West,8.1,-,N/A,,Scattered Clouds,260,2011-11-11 06:54:00
1:54 AM,32.0,26.1,79,30.05,10.0,West,6.9,-,N/A,,Clear,260,2011-11-11 07:54:00
2:54 AM,30.9,25.0,79,30.04,10.0,West,8.1,-,N/A,,Clear,260,2011-11-11 08:54:00
3:54 AM,30.0,25.0,82,30.03,10.0,Calm,Calm,-,N/A,,Clear,0,2011-11-11 09:54:00
4:54 AM,26.6,24.8,93,30.00,10.0,South,5.8,-,N/A,,Scattered Clouds,190,2011-11-11 10:54:00
5:54 AM,28.9,25.0,85,30.03,10.0,SSW,5.8,-,N/A,,Mostly Cloudy,200,2011-11-11 11:54:00
6:54 AM,30.0,26.1,85,30.02,10.0,South,4.6,-,N/A,,Overcast,180,2011-11-11 12:54:00
7:54 AM,30.9,28.0,89,30.02,10.0,SSW,5.8,-,N/A,,Overcast,200,2011-11-11 13:54:00
8:54 AM,32.0,28.0,85,30.02,10.0,South,5.8,-,N/A,,Overcast,190,2011-11-11 14:54:00
9:54 AM,36.0,28.9,76,29.99,10.0,South,11.5,-,N/A,,Overcast,190,2011-11-11 15:54:00
10:54 AM,37.9,28.0,68,29.98,10.0,South,11.5,-,N/A,,Overcast,180,2011-11-11 16:54:00
11:54 AM,39.9,26.1,58,29.93,10.0,South,17.3,-,N/A,,Overcast,180,2011-11-11 17:54:00
12:54 PM,44.1,28.9,55,29.89,10.0,South,17.3,-,N/A,,Mostly Cloudy,180,2011-11-11 18:54:00
1:54 PM,45.0,28.0,52,29.85,10.0,South,16.1,-,N/A,,Partly Cloudy,180,2011-11-11 19:54:00
2:54 PM,45.0,30.0,56,29.82,10.0,SSE,15.0,-,N/A,,Partly Cloudy,150,2011-11-11 20:54:00
3:54 PM,44.1,28.9,55,29.85,10.0,South,11.5,-,N/A,,Clear,190,2011-11-11 21:54:00
4:54 PM,41.0,30.0,65,29.82,10.0,South,12.7,-,N/A,,Clear,170,2011-11-11 22:54:00
5:54 PM,39.9,30.0,68,29.80,10.0,South,13.8,-,N/A,,Clear,170,2011-11-11 23:54:00
6:54 PM,39.0,30.9,73,29.78,10.0,South,11.5,-,N/A,,Clear,170,2011-11-12 00:54:00
7:54 PM,36.0,30.0,79,29.78,10.0,South,8.1,-,N/A,,Clear,190,2011-11-12 01:54:00
8:54 PM,34.0,30.0,85,29.78,10.0,South,4.6,-,N/A,,Clear,180,2011-11-12 02:54:00
9:54 PM,34.0,28.9,82,29.77,10.0,South,3.5,-,N/A,,Clear,180,2011-11-12 03:54:00
10:54 PM,33.1,28.9,85,29.76,10.0,South,5.8,-,N/A,,Clear,180,2011-11-12 04:54:00
11:54 PM,33.1,28.9,85,29.77,10.0,South,4.6,-,N/A,,Clear,180,2011-11-12 05:54:00